Regional Weather Roundup
Issued by NWS

Home | Current Version | Previous Version | Graphics & Text | Print | Product List | Glossary On
Versions: 1 2 3 4 5 6 7 8 9 10 11 12 13 14 15 16 17 18 19 20 21 22 23 24 25 26 27 28
000
ASUS45 KTFX 181710
RWRMT
MONTANA REGIONAL WEATHER ROUNDUP
NATIONAL WEATHER SERVICE GREAT FALLS MT
1000 AM MST SAT FEB 18 2017

NOTE: "FAIR" INDICATES FEW OR NO CLOUDS BELOW 12000 FEET WITH NO
SIGNIFICANT WEATHER AND/OR OBSTRUCTIONS TO VISIBILITY.

MTZ001>007-043-181800-
WEST OF THE DIVIDE

CITY           SKY/WX    TMP DP  RH WIND       PRES   REMARKS
KALISPELL      CLOUDY    33  27  78 N7        29.49F WCI  27
MISSOULA       MOSUNNY   34  29  82 CALM      29.49F
BUTTE          CLOUDY    36  28  73 SE3       29.52S
MULLAN PASS    LGT SNOW  26  26 100 SE8       29.40S FOG     WCI  18
ANACONDA         N/A     43  28  56 SE5       29.50F
DEER LODGE       N/A     43  30  61 S10       29.51F
EUREKA           N/A     25  23  93 CALM      29.54S
HAMILTON         N/A     37  30  75 CALM      29.48S
LIBBY            N/A     28  27  93 CALM      29.51S
RONAN            N/A     33  29  86 CALM      29.56F
$$

MTZ008-052>055-181800-
SOUTHWEST MONTANA

CITY           SKY/WX    TMP DP  RH WIND       PRES   REMARKS
BOZEMAN        CLOUDY    37  27  67 CALM      29.53F
DILLON         CLOUDY    39  29  67 NW5       29.53S
W YELLOWSTONE  LGT SNOW  34  32  93 SW10G17   29.65S WCI  26
ENNIS          PTSUNNY   46  30  53 S29G41    29.57F
THREE FORKS      N/A     38   3  23 CALM      29.57F
$$

MTZ009-010-012-014-046-048-049-054-181800-
EAST SLOPES AND CENTRAL MONTANA

CITY           SKY/WX    TMP DP  RH WIND       PRES   REMARKS
CUT BANK       CLOUDY    32  28  85 SE6       29.50F WCI  26
GREAT FALLS    CLOUDY    36  26  67 E5        29.50F
MALMSTROM AFB  CLOUDY    35  28  77 CALM      29.52S
HELENA         CLOUDY    36  30  79 CALM      29.52F
AUGUSTA        PTSUNNY   35  26  71 CALM      29.48F
BOWMANS CRNR     N/A     36  29  73 S6        29.47F WCI  32
CHOTEAU          N/A     36  27  69 CALM      29.51F
POWER          CLOUDY    35  28  76 S3        29.50S
RAYNESFORD     PTSUNNY   42  26  52 E10       29.50F
ULM            PTSUNNY   37  27  67 MISG      29.50F
$$

MTZ011-013-016-021-045-047-050-051-181800-
NORTH CENTRAL MONTANA

CITY           SKY/WX    TMP DP  RH WIND       PRES   REMARKS
HAVRE          CLOUDY    37  32  82 E13       29.54F WCI  29
LEWISTOWN      CLOUDY    45  23  42 E3        29.53S
N BAR RANCH      N/A     43  21  42 CALM      29.57S
CHINOOK          N/A     36  30  80 E10       29.59F WCI  28
DENTON         LGT RAIN  40  29  66 SW3       29.50S
FORT BENTON      N/A    N/A N/A N/A MISG      29.54F
GEYSER         PTSUNNY   39  26  58 CALM      29.51F
GRASS RANGE    PTSUNNY   42  26  53 NW5       29.51S
JUDITH GAP       N/A     39  24  54 S14       29.54F WCI  31
ROY            PTSUNNY   39  28  63 MISG      29.53S
STANFORD       PTSUNNY   43  27  53 SE9       29.51F
WINIFRED       PTSUNNY   38  28  67 E10       29.53F WCI  31
$$

MTZ017>020-022>027-061-062-181800-
NORTHEAST MONTANA

CITY           SKY/WX    TMP DP  RH WIND       PRES   REMARKS
GLASGOW        CLOUDY    37  32  82 E9        29.63S WCI  30
JORDAN           N/A     38  32  79 E5        29.60S
SIDNEY         CLOUDY    37  32  82 N9        29.68F WCI  30
WOLF POINT     CLOUDY    34  30  85 E12       29.68S WCI  25
PLENTYWOOD       N/A     36  32  87 E8        29.70F WCI  29
POPLAR           N/A     32  28  86 N7        29.69F WCI  26
SCOBEY           N/A     37  29  73 NE13      29.67F WCI  29
$$

MTZ028>42-056>058-181800-
SOUTHCENTRAL AND SOUTHEAST MONTANA

CITY           SKY/WX    TMP DP  RH WIND       PRES   REMARKS
BAKER          PTSUNNY   43  30  60 SE15      29.59F
BILLINGS       PTSUNNY   40  27  59 SW8       29.56S
LIVINGSTON     CLOUDY    39  26  59 VRB5      29.54F
MILES CITY     PTSUNNY   40  31  70 NE8       29.58S
BIG TIMBER     MOSUNNY   41  27  56 S7        29.58F
EKALAKA          N/A     49  25  39 E12       29.59F
FORSYTH          N/A     37  30  75 CALM      29.57F
HARLOWTON      PTSUNNY   38  26  64 W10       29.55F WCI  30
LAUREL           N/A     41  22  47 SW7       29.58S
$$

REGIONAL REPORTS...DAKOTAS

CITY           SKY/WX    TMP DP  RH WIND       PRES   REMARKS
WILLISTON      PTSUNNY   34  30  85 N5        29.71S
MINOT          PTSUNNY   38  31  76 NW8       29.72S
DICKINSON      CLOUDY    37  31  78 E8        29.66S WCI  31
BEACH            N/A    N/A N/A N/A MISG        N/A
CROSBY           N/A     32  32 100 N5        29.75S
TIOGA            N/A     32  32 100 E3        29.72F
WATFORD CITY     N/A     32  30  93 N3        29.70S
BISMARCK       CLOUDY    34  31  88 E3        29.76R
GRAND FORKS    MOSUNNY   40  31  70 W10       29.71R
FARGO          SUNNY     43  36  76 SW9       29.75R
BUFFALO SD       N/A     48  27  44 SE12      29.53F
RAPID CITY     MOSUNNY   50  29  44 S17       29.64S
$$

REGIONAL REPORTS...WYOMING/IDAHO/WASHINGTON

CITY           SKY/WX    TMP DP  RH WIND       PRES   REMARKS
GILLETTE       MOSUNNY   53  32  44 SW20G29   29.60R
SHERIDAN       CLOUDY    41  28  60 SE7       29.58F
BUFFALO WY     CLOUDY    46  30  53 E9        29.60S
CODY           MOSUNNY   44  30  57 SW10      29.60F
YELLOWSTONE LA   N/A     30  30 100 VRB3      29.69R
IDAHO FALLS    CLOUDY    41  35  79 S6        29.64F
SALMON         CLOUDY    34  30  86 CALM      29.53S
BOISE          CLOUDY    49  37  63 E25G33    29.45F
SPOKANE        CLOUDY    35  30  82 NE9       29.41F WCI  28
$$

REGIONAL REPORTS...ALBERTA

CITY           SKY/WX    TMP DP  RH WIND       PRES   REMARKS
EDMONTON       CLOUDY    30  28  93 E2        29.63S
CALGARY        CLOUDY    28  25  86 S5        29.53S
LETHBRIDGE     CLOUDY    30  27  86 NW3       29.54S
MEDICINE HAT   CLOUDY    37  28  70 NE10      29.57F WCI  30
WATERTON GATE    N/A     30  25  80 N1          N/A
CARDSTON         N/A     30  25  80 NW5         N/A
MILK RIVER       N/A     34  32  93 SE2         N/A
$$

REGIONAL REPORTS...SASKATCHEWAN

CITY           SKY/WX    TMP DP  RH WIND       PRES   REMARKS
SWIFT CURRENT  PTSUNNY   36  32  87 SE13      29.65S WCI  27
REGINA         CLOUDY    34  32  93 SW3       29.72R
SASKATOON      PTSUNNY   30  28  93 VRB2      29.72R
CYPRESS HILLS    N/A     36  18  48 E10         N/A  WCI  28
VAL MARIE        N/A     37  34  87 E8          N/A  WCI  31
ROCKGLEN         N/A     34  30  86 E5          N/A
ASSINIBOIA       N/A     30  27  86 NW3         N/A
$$




USA.gov is the U.S. government's official web portal to all federal, state and local government web resources and services.